| time (UTC) | temp C | wind direction | speed KPH | gust KPH | rain 1hr cm | rain 24hr cm | rain mn cm | humidity % | barometer mb |
| 20260507183558 | 29 | 200 | 9.7 | 14.5 | 0.00 | 0.00 | 0.00 | 78 | 1009.8 |
| 20260507183059 | 29 | 205 | 9.7 | 14.5 | 0.00 | 0.00 | 0.00 | 77 | 1009.8 |
| 20260507182558 | 29 | 193 | 9.7 | 16.1 | 0.00 | 0.00 | 0.00 | 79 | 1009.9 |
| 20260507182058 | 29 | 190 | 9.7 | 16.1 | 0.00 | 0.00 | 0.00 | 78 | 1010.0 |
| 20260507181606 | 29 | 182 | 8.0 | 14.5 | 0.00 | 0.00 | 0.00 | 79 | 1010.0 |
| 20260507181058 | 29 | 206 | 8.0 | 14.5 | 0.00 | 0.00 | 0.00 | 78 | 1010.1 |
| 20260507180601 | 29 | 186 | 8.0 | 12.9 | 0.00 | 0.00 | 0.00 | 78 | 1010.0 |
| 20260507180058 | 29 | 182 | 6.4 | 12.9 | 0.00 | 0.00 | 0.00 | 78 | 1010.1 |
| 20260507175558 | 29 | 182 | 8.0 | 17.7 | 0.00 | 0.00 | 0.00 | 79 | 1010.1 |
| 20260507175058 | 29 | 190 | 8.0 | 17.7 | 0.00 | 0.00 | 0.00 | 78 | 1010.0 |
| 20260507174602 | 29 | 192 | 6.4 | 16.1 | 0.00 | 0.00 | 0.00 | 78 | 1010.2 |
| 20260507174058 | 29 | 181 | 9.7 | 16.1 | 0.00 | 0.00 | 0.00 | 78 | 1010.3 |
| 20260507173558 | 29 | 215 | 9.7 | 14.5 | 0.00 | 0.00 | 0.00 | 78 | 1010.2 |
| 20260507173132 | 29 | 203 | 6.4 | 11.3 | 0.00 | 0.00 | 0.00 | 78 | 1010.4 |
| 20260507172558 | 29 | 157 | 6.4 | 12.9 | 0.00 | 0.00 | 0.00 | 78 | 1010.3 |
| 20260507172058 | 29 | 200 | 8.0 | 12.9 | 0.00 | 0.00 | 0.00 | 78 | 1010.4 |
| 20260507171609 | 29 | 232 | 8.0 | 12.9 | 0.00 | 0.00 | 0.00 | 78 | 1010.5 |
| 20260507171059 | 29 | 188 | 6.4 | 12.9 | 0.00 | 0.00 | 0.00 | 79 | 1010.5 |
| 20260507170558 | 29 | 211 | 6.4 | 12.9 | 0.00 | 0.00 | 0.00 | 78 | 1010.4 |
| 20260507170115 | 29 | 197 | 6.4 | 12.9 | 0.00 | 0.00 | 0.00 | 78 | 1010.4 |
| 20260507170001 | 29 | 205 | 6.4 | 12.9 | 0.00 | 0.00 | 0.00 | 78 | 1010.4 |
| 20260507165559 | 29 | 223 | 8.0 | 12.9 | 0.00 | 0.00 | 0.00 | 77 | 1010.5 |
| 20260507165059 | 29 | 223 | 6.4 | 11.3 | 0.00 | 0.00 | 0.00 | 77 | 1010.6 |
| 20260507164600 | 29 | 213 | 3.2 | 9.7 | 0.00 | 0.00 | 0.00 | 77 | 1010.7 |
| 20260507164100 | 29 | 225 | 3.2 | 11.3 | 0.00 | 0.00 | 0.00 | 76 | 1010.7 |
| 20260507163600 | 29 | 211 | 4.8 | 11.3 | 0.00 | 0.00 | 0.00 | 76 | 1010.8 |
| 20260507163100 | 29 | 227 | 4.8 | 9.7 | 0.00 | 0.00 | 0.00 | 76 | 1011.0 |
| 20260507162600 | 28 | 277 | 3.2 | 11.3 | 0.00 | 0.00 | 0.00 | 77 | 1011.0 |
| 20260507162100 | 28 | 202 | 4.8 | 11.3 | 0.00 | 0.00 | 0.00 | 77 | 1011.1 |
| 20260507161606 | 29 | 206 | 4.8 | 11.3 | 0.00 | 0.00 | 0.00 | 76 | 1011.2 |
| 20260507161059 | 29 | 262 | 4.8 | 11.3 | 0.00 | 0.00 | 0.00 | 76 | 1011.2 |
| 20260507160600 | 28 | 244 | 4.8 | 11.3 | 0.00 | 0.00 | 0.00 | 77 | 1011.3 |
| 20260507160059 | 28 | 236 | 4.8 | 11.3 | 0.00 | 0.00 | 0.00 | 77 | 1011.4 |
| 20260507155558 | 29 | 274 | 4.8 | 9.7 | 0.00 | 0.00 | 0.00 | 76 | 1011.3 |
| 20260507155100 | 28 | 271 | 1.6 | 8.0 | 0.00 | 0.00 | 0.00 | 77 | 1011.2 |
| 20260507154558 | 28 | 263 | 3.2 | 8.0 | 0.00 | 0.00 | 0.00 | 77 | 1011.3 |
| 20260507154058 | 28 | 223 | 3.2 | 8.0 | 0.00 | 0.00 | 0.00 | 77 | 1011.3 |
| 20260507153602 | 28 | 284 | 3.2 | 6.4 | 0.00 | 0.00 | 0.00 | 77 | 1011.3 |
| 20260507153101 | 28 | 229 | 4.8 | 6.4 | 0.00 | 0.00 | 0.00 | 77 | 1011.4 |
| 20260507152558 | 28 | 266 | 3.2 | 8.0 | 0.00 | 0.00 | 0.00 | 77 | 1011.5 |
| 20260507152058 | 28 | 286 | 3.2 | 8.0 | 0.00 | 0.00 | 0.00 | 77 | 1011.7 |
| 20260507151601 | 28 | 299 | 3.2 | 8.0 | 0.00 | 0.00 | 0.00 | 77 | 1011.7 |
| 20260507151058 | 28 | 275 | 4.8 | 9.7 | 0.00 | 0.00 | 0.00 | 77 | 1011.7 |
| 20260507150558 | 28 | 223 | 3.2 | 6.4 | 0.00 | 0.00 | 0.00 | 77 | 1011.8 |
| 20260507145558 | 28 | 236 | 3.2 | 6.4 | 0.00 | 0.00 | 0.00 | 77 | 1011.8 |
| 20260507145058 | 28 | 267 | 1.6 | 6.4 | 0.00 | 0.00 | 0.00 | 77 | 1011.9 |
| 20260507144602 | 28 | 277 | 1.6 | 4.8 | 0.00 | 0.00 | 0.00 | 77 | 1011.8 |
| 20260507144058 | 28 | 321 | 1.6 | 4.8 | 0.00 | 0.00 | 0.00 | 78 | 1011.9 |
| 20260507143558 | 28 | 346 | 1.6 | 4.8 | 0.00 | 0.00 | 0.00 | 78 | 1011.8 |
| 20260507143114 | 28 | 355 | 1.6 | 3.2 | 0.00 | 0.00 | 0.00 | 79 | 1011.9 |
| 20260507142559 | 27 | 302 | 1.6 | 4.8 | 0.00 | 0.00 | 0.00 | 79 | 1011.9 |
| 20260507142058 | 27 | 311 | 0.0 | 4.8 | 0.00 | 0.00 | 0.00 | 79 | 1011.9 |
| 20260507141634 | 27 | 360 | 1.6 | 3.2 | 0.00 | 0.00 | 0.00 | 79 | 1011.8 |
| 20260507141058 | 27 | 5 | 1.6 | 3.2 | 0.00 | 0.00 | 0.00 | 80 | 1011.8 |
| 20260507140559 | 27 | 9 | 0.0 | 3.2 | 0.00 | 0.00 | 0.00 | 80 | 1011.7 |
| 20260507140100 | 27 | 59 | 1.6 | 3.2 | 0.00 | 0.00 | 0.00 | 80 | 1011.7 |
| 20260507135558 | 27 | 294 | 0.0 | 3.2 | 0.00 | 0.00 | 0.00 | 81 | 1011.5 |
| 20260507135059 | 27 | 290 | 0.0 | 3.2 | 0.00 | 0.00 | 0.00 | 81 | 1011.4 |
| 20260507134604 | 27 | 341 | 0.0 | 3.2 | 0.00 | 0.00 | 0.00 | 82 | 1011.3 |
| 20260507134058 | 27 | 50 | 0.0 | 3.2 | 0.00 | 0.00 | 0.00 | 83 | 1011.2 |
| 20260507133558 | 27 | 338 | 0.0 | 3.2 | 0.00 | 0.00 | 0.00 | 83 | 1011.1 |
| 20260507133105 | 26 | 338 | 0.0 | 3.2 | 0.00 | 0.00 | 0.00 | 83 | 1011.1 |
| 20260507132557 | 26 | 338 | 0.0 | 1.6 | 0.00 | 0.00 | 0.00 | 83 | 1011.0 |
| 20260507132057 | 26 | 345 | 0.0 | 0.0 | 0.00 | 0.00 | 0.00 | 84 | 1011.0 |
| 20260507131558 | 26 | 345 | 0.0 | 3.2 | 0.00 | 0.00 | 0.00 | 84 | 1010.9 |
| 20260507131058 | 26 | 345 | 0.0 | 3.2 | 0.00 | 0.00 | 0.00 | 84 | 1010.8 |
| 20260507130558 | 26 | 345 | 0.0 | 1.6 | 0.00 | 0.00 | 0.00 | 84 | 1010.8 |
| 20260507130058 | 26 | 345 | 0.0 | 3.2 | 0.00 | 0.00 | 0.00 | 84 | 1010.9 |
| 20260507125558 | 26 | 345 | 0.0 | 3.2 | 0.00 | 0.00 | 0.00 | 84 | 1010.8 |
| 20260507125057 | 26 | 345 | 0.0 | 3.2 | 0.00 | 0.00 | 0.00 | 84 | 1010.6 |
| 20260507124558 | 26 | 345 | 1.6 | 3.2 | 0.00 | 0.00 | 0.00 | 84 | 1010.5 |
| 20260507124058 | 26 | 345 | 0.0 | 3.2 | 0.00 | 0.00 | 0.00 | 84 | 1010.5 |
| 20260507123558 | 26 | 345 | 0.0 | 3.2 | 0.00 | 0.00 | 0.00 | 84 | 1010.5 |
| 20260507123058 | 26 | 345 | 0.0 | 3.2 | 0.00 | 0.00 | 0.00 | 84 | 1010.3 |
| 20260507122558 | 26 | 345 | 1.6 | 3.2 | 0.00 | 0.00 | 0.00 | 83 | 1010.3 |
| 20260507122058 | 26 | 333 | 0.0 | 3.2 | 0.00 | 0.00 | 0.00 | 83 | 1010.3 |
| 20260507121603 | 26 | 333 | 0.0 | 3.2 | 0.00 | 0.00 | 0.00 | 83 | 1010.2 |
| 20260507121059 | 26 | 333 | 0.0 | 3.2 | 0.00 | 0.00 | 0.00 | 83 | 1010.2 |
| 20260507120558 | 26 | 61 | 0.0 | 3.2 | 0.00 | 0.00 | 0.00 | 83 | 1010.1 |
| 20260507120104 | 26 | 161 | 0.0 | 3.2 | 0.00 | 0.00 | 0.00 | 82 | 1010.0 |
| 20260507115558 | 27 | 161 | 0.0 | 3.2 | 0.00 | 0.00 | 0.00 | 83 | 1009.9 |
| 20260507115058 | 27 | 161 | 0.0 | 3.2 | 0.00 | 0.00 | 0.00 | 82 | 1009.8 |
| 20260507114615 | 27 | 161 | 0.0 | 3.2 | 0.00 | 0.00 | 0.00 | 83 | 1009.7 |
| 20260507114100 | 27 | 161 | 0.0 | 3.2 | 0.00 | 0.00 | 0.00 | 82 | 1009.7 |
| 20260507113559 | 27 | 161 | 0.0 | 3.2 | 0.00 | 0.00 | 0.00 | 83 | 1009.6 |
| 20260507113058 | 27 | 161 | 0.0 | 3.2 | 0.00 | 0.00 | 0.00 | 83 | 1009.7 |
| 20260507112559 | 27 | 107 | 0.0 | 3.2 | 0.00 | 0.00 | 0.00 | 83 | 1009.6 |
| 20260507112058 | 27 | 24 | 0.0 | 3.2 | 0.00 | 0.00 | 0.00 | 83 | 1009.5 |
| 20260507111558 | 27 | 67 | 0.0 | 3.2 | 0.00 | 0.00 | 0.00 | 83 | 1009.4 |
| 20260507111100 | 27 | 76 | 1.6 | 3.2 | 0.00 | 0.00 | 0.00 | 83 | 1009.4 |
| 20260507110558 | 27 | 63 | 1.6 | 3.2 | 0.00 | 0.00 | 0.00 | 83 | 1009.4 |
| 20260507110104 | 27 | 36 | 1.6 | 6.4 | 0.00 | 0.00 | 0.00 | 83 | 1009.4 |
| 20260507105559 | 27 | 67 | 1.6 | 6.4 | 0.00 | 0.00 | 0.00 | 83 | 1009.3 |
| 20260507105058 | 27 | 49 | 3.2 | 6.4 | 0.00 | 0.00 | 0.00 | 83 | 1009.3 |
| 20260507104600 | 27 | 50 | 3.2 | 6.4 | 0.00 | 0.00 | 0.00 | 83 | 1009.3 |
| 20260507104100 | 26 | 42 | 1.6 | 6.4 | 0.00 | 0.00 | 0.00 | 83 | 1009.3 |
| 20260507103558 | 26 | 32 | 3.2 | 6.4 | 0.00 | 0.00 | 0.00 | 83 | 1009.3 |
| 20260507103058 | 26 | 360 | 1.6 | 4.8 | 0.00 | 0.00 | 0.00 | 83 | 1009.2 |
| 20260507102558 | 26 | 30 | 3.2 | 4.8 | 0.00 | 0.00 | 0.00 | 83 | 1009.2 |
| 20260507102058 | 26 | 16 | 3.2 | 6.4 | 0.00 | 0.00 | 0.00 | 82 | 1009.3 |
| 20260507101603 | 26 | 342 | 3.2 | 6.4 | 0.00 | 0.00 | 0.00 | 82 | 1009.3 |
| 20260507101058 | 26 | 350 | 4.8 | 6.4 | 0.00 | 0.00 | 0.00 | 82 | 1009.2 |
| 20260507100558 | 26 | 332 | 4.8 | 6.4 | 0.00 | 0.00 | 0.00 | 82 | 1009.3 |
| 20260507095557 | 26 | 342 | 3.2 | 4.8 | 0.00 | 0.00 | 0.00 | 82 | 1009.4 |
| 20260507095101 | 26 | 350 | 3.2 | 4.8 | 0.00 | 0.00 | 0.00 | 82 | 1009.4 |
| 20260507094559 | 27 | 338 | 1.6 | 3.2 | 0.00 | 0.00 | 0.00 | 82 | 1009.4 |
| 20260507094056 | 27 | 355 | 0.0 | 1.6 | 0.00 | 0.00 | 0.00 | 82 | 1009.4 |
| 20260507093557 | 27 | 355 | 0.0 | 1.6 | 0.00 | 0.00 | 0.00 | 82 | 1009.4 |
| 20260507093057 | 27 | 355 | 1.6 | 3.2 | 0.00 | 0.00 | 0.00 | 82 | 1009.4 |
| 20260507092557 | 27 | 355 | 0.0 | 3.2 | 0.00 | 0.00 | 0.00 | 82 | 1009.5 |
| 20260507092057 | 27 | 355 | 0.0 | 3.2 | 0.00 | 0.00 | 0.00 | 82 | 1009.6 |
| 20260507091557 | 26 | 355 | 0.0 | 3.2 | 0.00 | 0.00 | 0.00 | 82 | 1009.4 |
| 20260507091057 | 26 | 355 | 0.0 | 3.2 | 0.00 | 0.00 | 0.00 | 82 | 1009.5 |
| 20260507090556 | 26 | 355 | 1.6 | 3.2 | 0.00 | 0.00 | 0.00 | 82 | 1009.5 |
| 20260507090057 | 26 | 355 | 1.6 | 3.2 | 0.00 | 0.00 | 0.00 | 82 | 1009.6 |
| 20260507085559 | 26 | 350 | 1.6 | 3.2 | 0.00 | 0.00 | 0.00 | 82 | 1009.6 |
| 20260507085058 | 27 | 349 | 0.0 | 3.2 | 0.00 | 0.00 | 0.00 | 82 | 1009.7 |
| 20260507084603 | 27 | 355 | 0.0 | 3.2 | 0.00 | 0.00 | 0.00 | 82 | 1009.8 |
| 20260507084057 | 27 | 13 | 0.0 | 3.2 | 0.00 | 0.00 | 0.00 | 82 | 1009.8 |
| 20260507083557 | 27 | 13 | 0.0 | 3.2 | 0.00 | 0.00 | 0.00 | 82 | 1009.9 |
| 20260507083058 | 27 | 11 | 0.0 | 3.2 | 0.00 | 0.00 | 0.00 | 82 | 1010.0 |
| 20260507082558 | 27 | 15 | 0.0 | 3.2 | 0.00 | 0.00 | 0.00 | 82 | 1010.0 |
| 20260507082058 | 27 | 15 | 0.0 | 3.2 | 0.00 | 0.00 | 0.00 | 82 | 1010.1 |
| 20260507081559 | 27 | 15 | 0.0 | 3.2 | 0.00 | 0.00 | 0.00 | 82 | 1010.2 |
| 20260507081057 | 27 | 65 | 0.0 | 3.2 | 0.00 | 0.00 | 0.00 | 83 | 1010.2 |
| 20260507080558 | 27 | 80 | 0.0 | 3.2 | 0.00 | 0.00 | 0.00 | 83 | 1010.3 |
| 20260507080057 | 27 | 80 | 0.0 | 3.2 | 0.00 | 0.00 | 0.00 | 83 | 1010.5 |
| 20260507075557 | 27 | 80 | 0.0 | 3.2 | 0.00 | 0.00 | 0.00 | 83 | 1010.5 |
| 20260507075056 | 27 | 87 | 1.6 | 3.2 | 0.00 | 0.00 | 0.00 | 83 | 1010.6 |
| 20260507074557 | 27 | 79 | 0.0 | 3.2 | 0.00 | 0.00 | 0.00 | 84 | 1010.5 |
| 20260507074056 | 27 | 65 | 0.0 | 3.2 | 0.00 | 0.00 | 0.00 | 84 | 1010.7 |
| 20260507073558 | 27 | 9 | 1.6 | 3.2 | 0.00 | 0.00 | 0.00 | 84 | 1010.8 |
| 20260507073134 | 27 | 11 | 1.6 | 3.2 | 0.00 | 0.00 | 0.00 | 84 | 1010.9 |
| 20260507072557 | 27 | 17 | 1.6 | 3.2 | 0.00 | 0.00 | 0.00 | 84 | 1010.9 |
| 20260507072056 | 27 | 318 | 0.0 | 3.2 | 0.00 | 0.00 | 0.00 | 84 | 1011.0 |
| 20260507071557 | 27 | 318 | 0.0 | 3.2 | 0.00 | 0.00 | 0.00 | 84 | 1011.0 |
| 20260507071057 | 27 | 318 | 0.0 | 3.2 | 0.00 | 0.00 | 0.00 | 84 | 1011.1 |
| 20260507070557 | 28 | 318 | 0.0 | 3.2 | 0.00 | 0.00 | 0.00 | 84 | 1011.1 |
| 20260507070058 | 28 | 318 | 0.0 | 1.6 | 0.00 | 0.00 | 0.00 | 84 | 1011.3 |
| 20260507065559 | 28 | 318 | 0.0 | 3.2 | 0.00 | 0.00 | 0.00 | 84 | 1011.4 |
| 20260507065059 | 28 | 318 | 0.0 | 3.2 | 0.00 | 0.00 | 0.00 | 84 | 1011.4 |
| 20260507064612 | 28 | 318 | 0.0 | 3.2 | 0.00 | 0.00 | 0.00 | 83 | 1011.5 |
| 20260507064100 | 28 | 335 | 0.0 | 3.2 | 0.00 | 0.00 | 0.00 | 83 | 1011.7 |
| 20260507063559 | 28 | 355 | 0.0 | 3.2 | 0.00 | 0.00 | 0.00 | 83 | 1011.7 |
| 20260507063115 | 28 | 336 | 0.0 | 3.2 | 0.00 | 0.00 | 0.00 | 83 | 1011.7 |
| 20260507062600 | 28 | 9 | 0.0 | 3.2 | 0.00 | 0.00 | 0.00 | 83 | 1011.8 |
| 20260507062100 | 28 | 29 | 1.6 | 3.2 | 0.00 | 0.00 | 0.00 | 83 | 1011.9 |
| 20260507061600 | 28 | 13 | 1.6 | 3.2 | 0.00 | 0.00 | 0.00 | 83 | 1012.0 |
| 20260507061104 | 28 | 38 | 1.6 | 3.2 | 0.00 | 0.00 | 0.00 | 83 | 1012.0 |
| 20260507060559 | 28 | 9 | 1.6 | 4.8 | 0.00 | 0.00 | 0.00 | 83 | 1012.0 |
| 20260507060059 | 28 | 355 | 3.2 | 6.4 | 0.00 | 0.00 | 0.00 | 83 | 1012.0 |
| 20260507055600 | 28 | 360 | 3.2 | 6.4 | 0.00 | 0.00 | 0.00 | 83 | 1012.1 |
| 20260507055100 | 28 | 355 | 1.6 | 4.8 | 0.00 | 0.00 | 0.00 | 83 | 1012.1 |
| 20260507054601 | 28 | 13 | 1.6 | 4.8 | 0.00 | 0.00 | 0.00 | 83 | 1012.1 |
| 20260507054102 | 28 | 9 | 3.2 | 4.8 | 0.00 | 0.00 | 0.00 | 83 | 1012.0 |
| 20260507053601 | 28 | 324 | 1.6 | 3.2 | 0.00 | 0.00 | 0.00 | 83 | 1012.1 |
| 20260507053101 | 28 | 306 | 0.0 | 3.2 | 0.00 | 0.00 | 0.00 | 83 | 1012.1 |
| 20260507052600 | 28 | 282 | 1.6 | 3.2 | 0.00 | 0.00 | 0.00 | 83 | 1012.0 |
| 20260507052100 | 28 | 277 | 1.6 | 3.2 | 0.00 | 0.00 | 0.00 | 83 | 1012.1 |
| 20260507051600 | 28 | 302 | 1.6 | 3.2 | 0.00 | 0.00 | 0.00 | 83 | 1012.0 |
| 20260507051104 | 28 | 308 | 0.0 | 3.2 | 0.00 | 0.00 | 0.00 | 83 | 1012.1 |
| 20260507050600 | 28 | 272 | 1.6 | 3.2 | 0.00 | 0.00 | 0.00 | 83 | 1012.0 |
| 20260507045559 | 28 | 247 | 1.6 | 4.8 | 0.00 | 0.00 | 0.00 | 83 | 1011.9 |
| 20260507045100 | 28 | 289 | 1.6 | 4.8 | 0.00 | 0.00 | 0.00 | 83 | 1011.9 |
| 20260507044601 | 28 | 263 | 0.0 | 4.8 | 0.00 | 0.00 | 0.00 | 84 | 1012.0 |
| 20260507044059 | 28 | 311 | 1.6 | 4.8 | 0.00 | 0.00 | 0.00 | 84 | 1011.9 |
| 20260507043600 | 28 | 306 | 1.6 | 3.2 | 0.00 | 0.00 | 0.00 | 84 | 1011.9 |
| 20260507043101 | 28 | 342 | 0.0 | 4.8 | 0.00 | 0.00 | 0.00 | 84 | 1011.8 |
| 20260507042559 | 28 | 355 | 0.0 | 4.8 | 0.00 | 0.00 | 0.00 | 84 | 1011.7 |
| 20260507042103 | 28 | 332 | 1.6 | 4.8 | 0.00 | 0.00 | 0.00 | 84 | 1011.7 |
| 20260507041612 | 28 | 333 | 0.0 | 4.8 | 0.00 | 0.00 | 0.00 | 84 | 1011.7 |
| 20260507041100 | 28 | 312 | 1.6 | 4.8 | 0.00 | 0.00 | 0.00 | 84 | 1011.6 |
| 20260507040600 | 28 | 300 | 0.0 | 4.8 | 0.00 | 0.00 | 0.00 | 84 | 1011.6 |
| 20260507040108 | 28 | 317 | 1.6 | 4.8 | 0.00 | 0.00 | 0.00 | 84 | 1011.5 |
| 20260507035600 | 28 | 311 | 0.0 | 4.8 | 0.00 | 0.00 | 0.00 | 84 | 1011.4 |
| 20260507035100 | 28 | 360 | 1.6 | 4.8 | 0.00 | 0.00 | 0.00 | 84 | 1011.4 |
| 20260507034620 | 28 | 328 | 1.6 | 6.4 | 0.00 | 0.00 | 0.00 | 84 | 1011.2 |
| 20260507034102 | 28 | 271 | 3.2 | 6.4 | 0.00 | 0.00 | 0.00 | 84 | 1011.2 |
| 20260507033600 | 28 | 278 | 1.6 | 8.0 | 0.00 | 0.00 | 0.00 | 83 | 1011.1 |
| 20260507033108 | 28 | 332 | 4.8 | 8.0 | 0.00 | 0.00 | 0.00 | 83 | 1011.1 |
| 20260507032600 | 28 | 323 | 4.8 | 8.0 | 0.00 | 0.00 | 0.00 | 83 | 1011.0 |
| 20260507032100 | 28 | 330 | 3.2 | 6.4 | 0.00 | 0.00 | 0.00 | 83 | 1011.0 |
| 20260507031600 | 28 | 322 | 1.6 | 6.4 | 0.00 | 0.00 | 0.00 | 83 | 1011.0 |
| 20260507031102 | 28 | 290 | 1.6 | 6.4 | 0.00 | 0.00 | 0.00 | 83 | 1011.0 |
| 20260507030604 | 28 | 340 | 3.2 | 6.4 | 0.00 | 0.00 | 0.00 | 83 | 1011.0 |
| 20260507030105 | 28 | 348 | 1.6 | 6.4 | 0.00 | 0.00 | 0.00 | 82 | 1010.9 |
| 20260507030000 | 28 | 9 | 1.6 | 6.4 | 0.00 | 0.00 | 0.00 | 82 | 1011.0 |
| 20260507025559 | 28 | 5 | 3.2 | 9.7 | 0.00 | 0.00 | 0.00 | 82 | 1010.9 |
| 20260507025101 | 28 | 316 | 4.8 | 9.7 | 0.00 | 0.00 | 0.00 | 82 | 1011.0 |
| 20260507024605 | 28 | 360 | 4.8 | 8.0 | 0.00 | 0.00 | 0.00 | 82 | 1011.0 |
| 20260507024100 | 28 | 345 | 4.8 | 8.0 | 0.00 | 0.00 | 0.00 | 82 | 1010.9 |
| 20260507023600 | 28 | 339 | 4.8 | 8.0 | 0.00 | 0.00 | 0.00 | 82 | 1011.1 |
| 20260507023059 | 28 | 9 | 3.2 | 8.0 | 0.00 | 0.00 | 0.00 | 82 | 1011.0 |
| 20260507022600 | 28 | 309 | 3.2 | 8.0 | 0.00 | 0.00 | 0.00 | 82 | 1011.0 |
| 20260507022101 | 28 | 299 | 3.2 | 8.0 | 0.00 | 0.00 | 0.00 | 81 | 1011.0 |
| 20260507021608 | 28 | 313 | 3.2 | 9.7 | 0.00 | 0.00 | 0.00 | 82 | 1010.9 |
| 20260507021059 | 28 | 316 | 4.8 | 9.7 | 0.00 | 0.00 | 0.00 | 82 | 1011.0 |
| 20260507020559 | 28 | 320 | 4.8 | 8.0 | 0.00 | 0.00 | 0.00 | 82 | 1011.0 |
| 20260507020002 | 28 | 287 | 1.6 | 11.3 | 0.00 | 0.00 | 0.00 | 82 | 1011.0 |
| 20260507015559 | 28 | 325 | 4.8 | 11.3 | 0.00 | 0.00 | 0.00 | 82 | 1011.0 |
| 20260507015500 | 28 | 252 | 4.8 | 11.3 | 0.00 | 0.00 | 0.00 | 81 | 1010.9 |
| 20260507015101 | 28 | 317 | 4.8 | 9.7 | 0.00 | 0.00 | 0.00 | 82 | 1011.0 |
| 20260507014600 | 28 | 329 | 1.6 | 9.7 | 0.00 | 0.00 | 0.00 | 82 | 1010.8 |
| 20260507014103 | 28 | 331 | 3.2 | 8.0 | 0.00 | 0.00 | 0.00 | 82 | 1010.9 |
| 20260507013601 | 28 | 339 | 1.6 | 9.7 | 0.00 | 0.00 | 0.00 | 82 | 1010.9 |
| 20260507013116 | 28 | 274 | 3.2 | 11.3 | 0.00 | 0.00 | 0.00 | 82 | 1010.9 |
| 20260507012601 | 28 | 323 | 3.2 | 11.3 | 0.00 | 0.00 | 0.00 | 81 | 1010.9 |
| 20260507012100 | 28 | 294 | 1.6 | 11.3 | 0.00 | 0.00 | 0.00 | 81 | 1010.7 |
| 20260507011600 | 28 | 267 | 1.6 | 11.3 | 0.00 | 0.00 | 0.00 | 81 | 1010.6 |
| 20260507011100 | 28 | 250 | 3.2 | 9.7 | 0.00 | 0.00 | 0.00 | 81 | 1010.6 |
| 20260507010600 | 28 | 306 | 1.6 | 14.5 | 0.00 | 0.00 | 0.00 | 81 | 1010.6 |
| 20260507010003 | 28 | 273 | 6.4 | 14.5 | 0.00 | 0.00 | 0.00 | 81 | 1010.6 |
| 20260507005605 | 28 | 296 | 4.8 | 12.9 | 0.00 | 0.00 | 0.00 | 81 | 1010.6 |
| 20260507005059 | 28 | 269 | 4.8 | 11.3 | 0.00 | 0.00 | 0.00 | 81 | 1010.4 |
| 20260507004600 | 28 | 303 | 1.6 | 11.3 | 0.00 | 0.00 | 0.00 | 81 | 1010.3 |
| 20260507004059 | 28 | 255 | 3.2 | 11.3 | 0.00 | 0.00 | 0.00 | 81 | 1010.5 |
| 20260507003603 | 28 | 275 | 3.2 | 12.9 | 0.00 | 0.00 | 0.00 | 81 | 1010.4 |
| 20260507003100 | 28 | 257 | 4.8 | 12.9 | 0.00 | 0.00 | 0.00 | 81 | 1010.2 |
| 20260507002559 | 29 | 308 | 3.2 | 12.9 | 0.00 | 0.00 | 0.00 | 81 | 1010.1 |
| 20260507002100 | 29 | 315 | 4.8 | 12.9 | 0.00 | 0.00 | 0.00 | 81 | 1010.1 |
| 20260507001613 | 29 | 9 | 4.8 | 12.9 | 0.00 | 0.00 | 0.00 | 81 | 1010.0 |
| 20260507001059 | 29 | 302 | 3.2 | 12.9 | 0.00 | 0.00 | 0.00 | 81 | 1010.0 |
| 20260507000559 | 29 | 271 | 4.8 | 16.1 | 0.00 | 0.00 | 0.00 | 81 | 1010.0 |
| 20260507000002 | 29 | 256 | 4.8 | 16.1 | 0.00 | 0.00 | 0.00 | 80 | 1009.9 |
| 20260506235600 | 29 | 277 | 4.8 | 14.5 | 0.00 | 0.00 | 0.00 | 81 | 1009.7 |
| 20260506235100 | 30 | 326 | 8.0 | 14.5 | 0.00 | 0.00 | 0.00 | 80 | 1009.6 |
| 20260506234608 | 30 | 249 | 4.8 | 14.5 | 0.00 | 0.00 | 0.00 | 80 | 1009.6 |
| 20260506234102 | 29 | 260 | 4.8 | 14.5 | 0.00 | 0.00 | 0.00 | 80 | 1009.6 |
| 20260506233600 | 29 | 279 | 6.4 | 14.5 | 0.00 | 0.00 | 0.00 | 79 | 1009.7 |
| 20260506233109 | 30 | 296 | 6.4 | 14.5 | 0.00 | 0.00 | 0.00 | 78 | 1009.7 |
| 20260506232600 | 30 | 298 | 8.0 | 19.3 | 0.00 | 0.00 | 0.00 | 78 | 1009.6 |
| 20260506232101 | 30 | 210 | 4.8 | 19.3 | 0.00 | 0.00 | 0.00 | 78 | 1009.6 |
| 20260506231600 | 30 | 298 | 8.0 | 17.7 | 0.00 | 0.00 | 0.00 | 78 | 1009.6 |
| 20260506231100 | 30 | 261 | 8.0 | 16.1 | 0.00 | 0.00 | 0.00 | 77 | 1009.5 |
| 20260506230601 | 30 | 286 | 8.0 | 14.5 | 0.00 | 0.00 | 0.00 | 77 | 1009.6 |
| 20260506230501 | 30 | 267 | 6.4 | 14.5 | 0.00 | 0.00 | 0.00 | 77 | 1009.6 |
| 20260506225601 | 30 | 346 | 4.8 | 14.5 | 0.00 | 0.00 | 0.00 | 78 | 1009.6 |
| 20260506225059 | 30 | 315 | 9.7 | 14.5 | 0.00 | 0.00 | 0.00 | 78 | 1009.6 |
| 20260506224613 | 30 | 274 | 4.8 | 16.1 | 0.00 | 0.00 | 0.00 | 78 | 1009.7 |
| 20260506224058 | 30 | 250 | 8.0 | 16.1 | 0.00 | 0.00 | 0.00 | 78 | 1009.6 |
| 20260506223558 | 30 | 298 | 4.8 | 14.5 | 0.00 | 0.00 | 0.00 | 78 | 1009.7 |
| 20260506223103 | 30 | 270 | 6.4 | 16.1 | 0.00 | 0.00 | 0.00 | 78 | 1009.6 |
| 20260506222559 | 30 | 277 | 8.0 | 17.7 | 0.00 | 0.00 | 0.00 | 78 | 1009.7 |
| 20260506222059 | 30 | 255 | 8.0 | 19.3 | 0.00 | 0.00 | 0.00 | 79 | 1009.7 |
| 20260506221559 | 30 | 271 | 12.9 | 17.7 | 0.00 | 0.00 | 0.00 | 78 | 1009.6 |
| 20260506221058 | 30 | 251 | 4.8 | 12.9 | 0.00 | 0.00 | 0.00 | 80 | 1009.7 |
| 20260506220558 | 30 | 268 | 9.7 | 14.5 | 0.00 | 0.00 | 0.00 | 79 | 1009.7 |
| 20260506220110 | 30 | 267 | 4.8 | 16.1 | 0.00 | 0.00 | 0.00 | 80 | 1009.6 |
| 20260506215600 | 30 | 311 | 8.0 | 16.1 | 0.00 | 0.00 | 0.00 | 80 | 1009.6 |
| 20260506215059 | 30 | 293 | 6.4 | 14.5 | 0.00 | 0.00 | 0.00 | 80 | 1009.6 |
| 20260506214559 | 30 | 275 | 9.7 | 14.5 | 0.00 | 0.00 | 0.00 | 80 | 1009.6 |
| 20260506214058 | 30 | 274 | 9.7 | 16.1 | 0.00 | 0.00 | 0.00 | 80 | 1009.6 |